When you browse on this site, cookies collect data to enhance your experience and personalize the content and advertising you see.
Visit our Privacy Policy to learn more. By continuing to use the site, you agree to this use of cookies and data.
  • In Spain
  • List of Countries
  • For 7 days
  • Water Temperature
  • Weather Map
  • Weather Widgets
  • user-avatar
    Login

    Hourly Weather Astana

    Today, 6 June, Saturday

    Time Temperature Precipitation Wind Pressure Humidity
    00:00 +13°C° 0 mm 1 mps 735 mmHg 57%
    01:00 +13°C° 0 mm 2 mps 735 mmHg 57%
    02:00 +12°C° 0 mm 3 mps 735 mmHg 58%
    03:00 +11°C° 0 mm 3 mps 735 mmHg 62%
    04:00 +12°C° 0 mm 2 mps 736 mmHg 66%
    05:00 +10°C° 0 mm 2 mps 736 mmHg 71%
    06:00 +12°C° 0 mm 3 mps 736 mmHg 64%
    07:00 +14°C° 0 mm 3 mps 736 mmHg 57%
    08:00 +17°C° 0 mm 4 mps 736 mmHg 50%
    09:00 +18°C° 0 mm 4 mps 736 mmHg 47%
    10:00 +19°C° 0 mm 4 mps 736 mmHg 44%
    11:00 +20°C° 0 mm 4 mps 736 mmHg 37%
    12:00 +20°C° 0 mm 4 mps 736 mmHg 36%
    13:00 +21°C° 0 mm 4 mps 736 mmHg 35%
    14:00 +22°C° 0 mm 4 mps 736 mmHg 34%
    15:00 +22°C° 0 mm 4 mps 736 mmHg 34%
    16:00 +22°C° 0 mm 4 mps 736 mmHg 35%
    17:00 +22°C° 0 mm 4 mps 735 mmHg 36%
    18:00 +21°C° 0 mm 3 mps 735 mmHg 38%
    19:00 +20°C° 0 mm 2 mps 735 mmHg 41%
    20:00 +20°C° 0 mm 1 mps 735 mmHg 44%
    21:00 +18°C° 0 mm 2 mps 735 mmHg 45%
    22:00 +17°C° 0 mm 2 mps 735 mmHg 46%
    23:00 +16°C° 0 mm 2 mps 736 mmHg 47%

    Tomorrow, 7 June, Sunday

    Time Temperature Precipitation Wind Pressure Humidity
    00:00 +15°C° 0 mm 2 mps 736 mmHg 50%
    01:00 +15°C° 0 mm 1 mps 735 mmHg 53%
    02:00 +14°C° 0 mm 1 mps 735 mmHg 56%
    03:00 +14°C° 0 mm 1 mps 736 mmHg 60%
    04:00 +14°C° 0 mm 2 mps 736 mmHg 64%
    05:00 +14°C° 0 mm 2 mps 736 mmHg 68%
    06:00 +16°C° 0 mm 2 mps 736 mmHg 63%
    07:00 +18°C° 0 mm 3 mps 737 mmHg 59%
    08:00 +20°C° 0 mm 3 mps 737 mmHg 55%
    09:00 +21°C° 0 mm 3 mps 737 mmHg 50%
    10:00 +22°C° 0 mm 4 mps 737 mmHg 45%
    11:00 +23°C° 0 mm 4 mps 737 mmHg 39%
    12:00 +25°C° 0 mm 4 mps 737 mmHg 38%
    13:00 +25°C° 0 mm 4 mps 737 mmHg 37%
    14:00 +25°C° 0 mm 3 mps 736 mmHg 36%
    15:00 +25°C° 0 mm 3 mps 736 mmHg 36%
    16:00 +25°C° 0 mm 4 mps 736 mmHg 35%
    17:00 +25°C° 0 mm 4 mps 736 mmHg 34%
    18:00 +23°C° 0 mm 4 mps 736 mmHg 39%
    19:00 +21°C° 0 mm 4 mps 736 mmHg 45%
    20:00 +20°C° 0 mm 4 mps 735 mmHg 50%
    21:00 +19°C° 0 mm 3 mps 735 mmHg 51%
    22:00 +18°C° 0 mm 3 mps 736 mmHg 52%
    23:00 +17°C° 0 mm 3 mps 736 mmHg 54%

    Day after tomorrow, 8 June, Monday

    Time Temperature Precipitation Wind Pressure Humidity
    00:00 +16°C° 0 mm 2 mps 736 mmHg 54%
    01:00 +16°C° 0 mm 2 mps 735 mmHg 55%
    02:00 +15°C° 0 mm 2 mps 735 mmHg 56%
    03:00 +15°C° 0 mm 2 mps 735 mmHg 57%
    04:00 +15°C° 0 mm 1 mps 735 mmHg 58%
    05:00 +15°C° 0 mm 1 mps 735 mmHg 58%
    06:00 +17°C° 0 mm 2 mps 736 mmHg 53%
    07:00 +19°C° 0 mm 2 mps 736 mmHg 47%
    08:00 +21°C° 0 mm 2 mps 736 mmHg 41%
    09:00 +22°C° 0 mm 3 mps 736 mmHg 39%
    10:00 +24°C° 0 mm 3 mps 735 mmHg 36%
    11:00 +25°C° 0 mm 3 mps 735 mmHg 34%
    12:00 +25°C° 0 mm 3 mps 735 mmHg 34%
    13:00 +25°C° 0 mm 3 mps 735 mmHg 33%
    14:00 +25°C° 0 mm 3 mps 735 mmHg 33%
    15:00 +25°C° 0 mm 3 mps 735 mmHg 34%
    16:00 +25°C° 0 mm 3 mps 735 mmHg 34%
    17:00 +25°C° 0 mm 3 mps 734 mmHg 35%
    18:00 +24°C° 0 mm 2 mps 734 mmHg 39%
    19:00 +23°C° 0 mm 2 mps 734 mmHg 42%
    20:00 +22°C° 0 mm 1 mps 734 mmHg 46%
    21:00 +21°C° 0 mm 1 mps 734 mmHg 47%
    22:00 +20°C° 0 mm 1 mps 734 mmHg 47%
    23:00 +19°C° 0 mm 1 mps 734 mmHg 47%

    9 June, Tuesday

    Time Temperature Precipitation Wind Pressure Humidity
    00:00 +19°C° 0 mm 1 mps 734 mmHg 48%
    01:00 +19°C° 0 mm 1 mps 734 mmHg 48%
    02:00 +19°C° 0 mm 1 mps 734 mmHg 49%
    03:00 +18°C° 0 mm 2 mps 734 mmHg 53%
    04:00 +17°C° 0 mm 3 mps 734 mmHg 58%
    05:00 +16°C° 0 mm 3 mps 734 mmHg 62%
    06:00 +18°C° 0 mm 4 mps 734 mmHg 57%
    07:00 +20°C° 0 mm 4 mps 734 mmHg 53%
    08:00 +22°C° 0 mm 5 mps 735 mmHg 48%
    09:00 +25°C° 0 mm 4 mps 735 mmHg 45%
    10:00 +26°C° 0 mm 4 mps 735 mmHg 42%
    11:00 +27°C° 0 mm 4 mps 735 mmHg 39%
    12:00 +27°C° 0 mm 4 mps 735 mmHg 40%
    13:00 +27°C° 0 mm 4 mps 734 mmHg 41%
    14:00 +27°C° 0 mm 4 mps 734 mmHg 42%
    15:00 +27°C° 0 mm 5 mps 734 mmHg 42%
    16:00 +27°C° 0 mm 5 mps 734 mmHg 42%
    17:00 +27°C° 0 mm 6 mps 734 mmHg 43%
    18:00 +26°C° 0 mm 5 mps 734 mmHg 45%
    19:00 +25°C° 0 mm 4 mps 734 mmHg 47%
    20:00 +23°C° 0 mm 4 mps 734 mmHg 49%
    21:00 +21°C° 0 mm 4 mps 734 mmHg 52%
    22:00 +20°C° 0 mm 4 mps 734 mmHg 55%
    23:00 +19°C° 0 mm 4 mps 735 mmHg 58%

    10 June, Wednesday

    Time Temperature Precipitation Wind Pressure Humidity
    00:00 +18°C° 0 mm 4 mps 735 mmHg 60%
    01:00 +17°C° 0 mm 3 mps 735 mmHg 62%
    02:00 +16°C° 0 mm 3 mps 735 mmHg 64%
    03:00 +14°C° 0 mm 3 mps 735 mmHg 65%
    04:00 +14°C° 0 mm 3 mps 736 mmHg 66%
    05:00 +14°C° 0 mm 3 mps 736 mmHg 67%
    06:00 +17°C° 0 mm 3 mps 736 mmHg 60%
    07:00 +19°C° 0 mm 3 mps 737 mmHg 54%
    08:00 +21°C° 0 mm 3 mps 737 mmHg 47%
    09:00 +22°C° 0 mm 4 mps 737 mmHg 44%
    10:00 +25°C° 0 mm 4 mps 737 mmHg 41%
    11:00 +26°C° 0 mm 4 mps 737 mmHg 38%
    12:00 +27°C° 0 mm 4 mps 737 mmHg 38%
    13:00 +27°C° 0 mm 4 mps 737 mmHg 38%
    14:00 +27°C° 0 mm 4 mps 737 mmHg 39%
    15:00 +27°C° 0 mm 4 mps 736 mmHg 39%
    16:00 +28°C° 0 mm 4 mps 736 mmHg 40%
    17:00 +28°C° 0 mm 4 mps 736 mmHg 41%
    18:00 +27°C° 0 mm 4 mps 736 mmHg 44%
    19:00 +26°C° 0 mm 4 mps 736 mmHg 47%
    20:00 +25°C° 0 mm 4 mps 735 mmHg 50%
    21:00 +23°C° 0 mm 4 mps 735 mmHg 53%
    22:00 +21°C° 0 mm 4 mps 735 mmHg 55%
    23:00 +20°C° 0 mm 3 mps 735 mmHg 58%

    11 June, Thursday

    Time Temperature Precipitation Wind Pressure Humidity
    00:00 +20°C° 0 mm 3 mps 735 mmHg 59%
    01:00 +20°C° 0 mm 3 mps 735 mmHg 60%
    02:00 +19°C° 0 mm 3 mps 735 mmHg 61%
    03:00 +19°C° 0 mm 3 mps 735 mmHg 63%
    04:00 +19°C° 0 mm 3 mps 735 mmHg 64%
    05:00 +19°C° 0 mm 2 mps 735 mmHg 65%
    06:00 +21°C° 0 mm 3 mps 735 mmHg 60%
    07:00 +22°C° 0 mm 3 mps 735 mmHg 56%
    08:00 +25°C° 0 mm 3 mps 736 mmHg 52%
    09:00 +26°C° 0 mm 3 mps 736 mmHg 47%
    10:00 +27°C° 0 mm 3 mps 735 mmHg 43%
    11:00 +28°C° 0 mm 3 mps 735 mmHg 38%
    12:00 +28°C° 0 mm 3 mps 735 mmHg 37%
    13:00 +28°C° 0 mm 3 mps 735 mmHg 35%
    14:00 +29°C° 0 mm 3 mps 735 mmHg 34%
    15:00 +28°C° 0 mm 3 mps 734 mmHg 35%
    16:00 +28°C° 0 mm 3 mps 734 mmHg 35%
    17:00 +28°C° 0 mm 3 mps 734 mmHg 36%
    18:00 +27°C° 0 mm 2 mps 733 mmHg 40%
    19:00 +26°C° 0 mm 2 mps 733 mmHg 44%
    20:00 +24°C° 0 mm 1 mps 733 mmHg 49%
    21:00 +24°C° 0 mm 1 mps 733 mmHg 49%
    22:00 +23°C° 0 mm 2 mps 733 mmHg 50%
    23:00 +21°C° 0 mm 2 mps 733 mmHg 51%
    Show more